Temp
6 6 6 5 5 5 5 4 4 3 2 2 2 3 3 3 3 3 4 3 2 2
5 6 5 5 5 5 5 5 4 4 3 2 0 0 -0 0 2 1 1 0 0 1
5 5 5 5 5 5 5 4 4 3 1 0 0 1 0 0 0 0 -0 0 0 0
5 5 5 5 4 4 4 3 1 0 1 0 0 0 0 -0 0 -0 -0 -0 -1 -2
4 5 5 4 4 4 3 3 2 1 0 -0 -0 0 0 -0 -0 -0 -1 -1 -1 -2
4 5 4 2 2 2 2 2 2 1 0 -0 -0 -0 -1 -1 -1 -1 -1 -2 -2 -3
1 1 1 1 0 0 0 0 0 0 1 1 1 -1 -1 -1 -2 -2 -2 -2 -3 -3
0 0 0 0 0 0 0 -0 -0 -0 -1 -1 -1 -1 -1 -1 -2 -2 -3 -4 -4 -4
-2 -2 -2 -1 -1 -1 -1 -1 -0 -0 -0 -0 -1 -1 -1 1 -1 -3 -4 -4 -4 -4
-3 -3 -3 -3 -3 -3 -3 -3 -3 -2 -2 -1 -1 -1 -2 -1 -1 -4 -4 -4 -5 -5
-5 -5 -5 -5 -5 -4 -4 -4 -4 -4 -4 -3 -2 -2 -2 -3 -2 -4 -4 -4 -5 -5
-6 -6 -6 -6 -6 -6 -6 -6 -5 -5 -5 -4 -3 -3 -3 -3 -4 -4 -4 -5 -5 -5
-7 -7 -7 -7 -7 -7 -6 -6 -6 -6 -6 -6 -5 -5 -4 -4 -4 -4 -4 -5 -5 -5
-7 -7 -7 -7 -8 -7 -7 -7 -7 -6 -6 -6 -6 -5 -5 -4 -4 -5 -5 -6 -6 -6
Height
1522 1522 1521 1521 1519 1516 1513 1509 1505 1502 1500 1500 1499 1496 1496 1494 1492 1489 1488 1486 1484 1483
1520 1520 1518 1517 1514 1511 1508 1504 1501 1498 1495 1493 1493 1492 1489 1486 1484 1482 1481 1479 1478 1476
1517 1516 1514 1512 1510 1507 1503 1499 1497 1493 1490 1488 1487 1486 1484 1481 1479 1476 1474 1473 1472 1470
1514 1511 1509 1507 1504 1500 1497 1494 1492 1490 1487 1485 1483 1480 1478 1475 1473 1470 1468 1466 1463 1460
1508 1506 1504 1501 1498 1494 1492 1489 1487 1484 1481 1479 1476 1474 1471 1468 1466 1463 1460 1458 1455 1451
1501 1500 1498 1495 1492 1489 1486 1483 1480 1478 1475 1472 1470 1467 1464 1461 1458 1455 1452 1449 1445 1443
1496 1495 1494 1490 1486 1483 1480 1477 1473 1470 1467 1463 1460 1457 1455 1452 1449 1446 1442 1440 1437 1435
1493 1490 1487 1483 1480 1477 1473 1469 1465 1461 1458 1454 1451 1448 1445 1442 1439 1436 1433 1430 1427 1425
1486 1483 1480 1475 1471 1468 1464 1460 1457 1453 1449 1445 1441 1438 1434 1432 1429 1427 1424 1420 1418 1416
1482 1477 1473 1469 1464 1460 1455 1450 1446 1440 1437 1433 1430 1428 1424 1421 1419 1417 1415 1412 1410 1407
1476 1472 1467 1462 1458 1453 1448 1443 1437 1431 1427 1423 1417 1416 1414 1410 1409 1407 1405 1402 1400 1398
1473 1468 1463 1457 1452 1447 1441 1435 1429 1423 1416 1412 1405 1403 1401 1398 1397 1396 1395 1393 1392 1390
1469 1464 1458 1452 1446 1440 1435 1428 1422 1414 1408 1400 1394 1390 1388 1386 1385 1384 1384 1383 1382 1382
1465 1459 1454 1447 1441 1434 1428 1422 1415 1407 1399 1391 1384 1377 1375 1373 1372 1372 1374 1374 1373 1374
Wind_Speed
24 16 16 22 23 23 23 23 22 20 19 19 20 21 22 21 20 19 20 19 16 15
19 21 19 24 24 24 24 25 25 24 23 22 21 20 19 20 22 19 19 18 18 17
29 23 21 25 24 25 26 26 26 25 23 22 22 20 20 19 19 20 19 19 19 20
20 21 22 25 26 27 27 26 24 22 22 23 23 22 22 22 21 22 21 21 22 22
28 24 25 26 26 26 27 26 26 24 23 24 25 24 24 24 22 22 23 23 23 23
26 25 28 27 26 25 25 27 26 24 24 23 24 25 26 25 25 24 24 24 23 22
23 22 24 25 25 25 25 25 26 26 28 30 29 26 25 25 26 26 25 24 24 23
19 22 24 26 27 28 28 29 28 28 28 29 28 27 26 25 24 25 25 25 25 24
19 20 21 22 23 24 26 28 29 31 33 33 32 32 36 38 32 26 27 27 25 24
22 23 24 25 27 28 29 30 34 36 35 36 35 37 39 40 37 28 28 27 26 24
23 24 25 26 27 28 29 32 34 35 35 37 40 38 42 43 40 30 28 29 27 27
22 24 25 25 26 27 28 30 33 36 38 38 43 40 38 42 35 30 29 27 26 26
23 25 27 27 29 29 29 32 32 35 37 39 40 41 38 44 36 30 29 26 23 25
25 27 26 28 29 30 31 32 34 35 37 38 39 40 36 41 41 32 27 28 25 24
Wind_Direction
322 310 300 309 312 314 313 308 305 299 294 291 289 288 280 275 272 268 266 266 265 267
324 291 293 304 310 313 314 309 302 295 291 288 283 278 279 277 277 274 272 269 266 267
299 280 290 301 307 312 312 306 299 294 288 284 277 272 273 275 275 274 270 269 269 267
289 277 287 296 304 309 308 304 293 284 280 277 274 271 270 272 272 272 272 270 271 273
290 279 288 295 303 308 307 304 297 290 279 278 275 272 270 270 269 269 271 272 269 275
287 279 285 287 288 292 298 301 297 291 285 279 276 274 272 270 270 272 272 271 271 274
287 287 288 291 291 288 287 284 284 283 286 289 288 280 274 272 272 271 269 265 267 269
300 296 295 294 292 289 285 283 283 281 280 281 281 280 278 278 277 274 271 269 272 272
322 317 313 310 307 302 295 289 286 281 278 276 275 274 278 288 283 274 270 271 272 271
328 324 321 316 312 309 306 302 298 294 286 278 274 273 273 277 282 271 268 265 268 271
330 328 325 321 317 312 308 304 301 296 290 285 283 278 269 268 273 266 263 260 262 269
333 330 327 324 322 318 314 309 307 304 294 292 289 286 281 263 255 257 260 257 260 262
329 327 325 323 322 321 317 314 314 311 306 297 292 288 282 264 249 251 254 254 256 259
328 325 322 319 319 318 316 315 309 311 316 314 303 295 281 269 250 245 251 254 253 257